St. Paul Lake Elmo, MN

3:11 PM CST on November 16, 2019 (GMT -0600)
St. Paul Lake Elmo

Weather History for K21D - September, 2019

Change the Weather History Date:

Saturday, September 14, 2019

  Actual Average (KSTP) Record (KSTP)
Temperature  
Mean Temperature 58 °F -  
Max Temperature 71 °F 72 °F 89 °F (2017)
Min Temperature 46 °F 52 °F 37 °F (1996)
Degree Days  
Heating Degree Days 6    
Growing Degree Days 8 (Base 50)    
Moisture  
Dew Point 55 °F    
Average Humidity 88    
Maximum Humidity 100    
Minimum Humidity 64    
Precipitation  
Precipitation 0.00 in - - ()
Sea Level Pressure  
Sea Level Pressure 30.06 in    
Wind  
Wind Speed 3 mph (WSW)    
Max Wind Speed 10 mph    
Max Gust Speed 17 mph    
Visibility 9 miles    
Events Fog , Rain , Thunderstorm    
Averages and records for this station are not official NWS values.
T = Trace of Precipitation, MM = Missing Value Source: NWS Daily Summary

Daily Weather History Graph

Daily Weather History Graph

Search for Another Location

Airport or City:

Astronomy

Sep. 14, 2019 Rise Set
Actual Time 6:48 AM CDT 7:24 PM CDT
Civil Twilight 6:19 AM CDT 7:54 PM CDT
Nautical Twilight 5:44 AM CDT 8:28 PM CDT
Astronomical Twilight 5:07 AM CDT 9:05 PM CDT
Moon 8:06 PM CDT (9/14) 7:00 AM CDT (9/14)
Length of Visible Light 13h 34m
Length of Day
12h 35m
Full, 100% of the Moon is Illuminated
Sep 14
Full
Sep 21
Last Quarter
Sep 28
New
Oct 5
First Quarter
Oct 13
Full

Hourly Weather History & Observations

Time (CDT) Temp. Windchill Dew Point Humidity Pressure Visibility Wind Dir Wind Speed Gust Speed Precip Events Conditions
12:19 AM 50.0 °F - 50.0 °F 100% 30.08 in 10.0 mi Calm Calm - N/A   Clear
12:36 AM 51.8 °F - 50.0 °F 94% 30.08 in 10.0 mi Calm Calm - N/A   Clear
12:55 AM 51.8 °F - 50.0 °F 94% 30.08 in 10.0 mi Calm Calm - N/A   Clear
1:15 AM 50.0 °F - 50.0 °F 100% 30.09 in 10.0 mi Calm Calm - N/A   Clear
1:16 AM 50.0 °F - 50.0 °F 100% 30.09 in 10.0 mi Calm Calm - N/A   Clear
1:35 AM 50.0 °F - 50.0 °F 100% 30.09 in 10.0 mi Calm Calm - N/A   Clear
1:57 AM 50.0 °F - 50.0 °F 100% 30.09 in 10.0 mi Calm Calm - N/A   Clear
2:16 AM 48.2 °F - 48.2 °F 100% 30.09 in 5.0 mi Calm Calm - N/A   Clear
2:35 AM 50.0 °F - 50.0 °F 100% 30.09 in 2.0 mi Calm Calm - N/A   Clear
2:55 AM 46.4 °F 42.9 °F 46.4 °F 100% 30.10 in 10.0 mi WSW 6.9 mph - N/A   Clear
2:56 AM 46.4 °F 42.9 °F 46.4 °F 100% 30.10 in 10.0 mi WSW 6.9 mph - N/A   Clear
3:18 AM 50.0 °F - 50.0 °F 100% 30.11 in 10.0 mi WSW 4.6 mph - N/A   Clear
3:36 AM 48.2 °F - 48.2 °F 100% 30.11 in 10.0 mi WSW 4.6 mph - N/A   Clear
3:56 AM 48.2 °F - 48.2 °F 100% 30.11 in 10.0 mi WSW 3.5 mph - N/A   Clear
4:15 AM 48.2 °F - 48.2 °F 100% 30.11 in 10.0 mi WSW 3.5 mph - N/A   Clear
4:16 AM 48.2 °F - 48.2 °F 100% 30.11 in 10.0 mi WSW 4.6 mph - N/A   Clear
4:35 AM 50.0 °F - 50.0 °F 100% 30.11 in 10.0 mi WSW 4.6 mph - N/A   Clear
4:40 AM 50.0 °F - 48.2 °F 94% 30.11 in 10.0 mi WSW 4.6 mph - N/A   Clear
4:57 AM 46.4 °F 44.3 °F 46.4 °F 100% 30.11 in 10.0 mi WSW 4.6 mph - N/A   Clear
5:16 AM 46.4 °F 45.2 °F 46.4 °F 100% 30.12 in 7.0 mi WSW 3.5 mph - N/A   Clear
5:35 AM 46.4 °F - 46.4 °F 100% 30.12 in 7.0 mi Calm Calm - N/A   Clear
5:36 AM 46.4 °F - 46.4 °F 100% 30.12 in 7.0 mi Calm Calm - N/A   Clear
5:55 AM 46.4 °F 44.3 °F 46.4 °F 100% 30.12 in 10.0 mi WSW 4.6 mph - N/A   Clear
5:56 AM 46.4 °F 44.3 °F 46.4 °F 100% 30.12 in 10.0 mi WSW 4.6 mph - N/A   Clear
6:19 AM 46.4 °F - 46.4 °F 100% 30.12 in 7.0 mi Calm Calm - N/A   Clear
6:36 AM 46.4 °F - 46.4 °F 100% 30.12 in 1.2 mi Calm Calm - N/A   Scattered Clouds
6:55 AM 46.4 °F - 46.4 °F 100% 30.12 in 0.5 mi Calm Calm - N/A Fog Fog
6:56 AM 46.4 °F - 46.4 °F 100% 30.12 in 0.5 mi Calm Calm - N/A Fog Fog
7:15 AM 46.4 °F - 46.4 °F 100% 30.12 in 2.0 mi Calm Calm - N/A   Scattered Clouds
7:16 AM 46.4 °F - 46.4 °F 100% 30.12 in 4.0 mi Calm Calm - N/A   Scattered Clouds
7:35 AM 46.4 °F - 46.4 °F 100% 30.12 in 10.0 mi Calm Calm - N/A   Clear
7:57 AM 50.0 °F - 50.0 °F 100% 30.12 in 7.0 mi Calm Calm - N/A   Clear
8:15 AM 51.8 °F - 51.8 °F 100% 30.12 in 7.0 mi Calm Calm - N/A   Clear
8:35 AM 51.8 °F - 51.8 °F 100% 30.11 in 10.0 mi Calm Calm - N/A   Clear
8:36 AM 53.6 °F - 51.8 °F 94% 30.11 in 10.0 mi Calm Calm - N/A   Clear
8:55 AM 53.6 °F - 53.6 °F 100% 30.11 in 10.0 mi WSW 5.8 mph - N/A   Clear
8:56 AM 53.6 °F - 53.6 °F 100% 30.11 in 10.0 mi WSW 5.8 mph - N/A   Clear
9:19 AM 55.4 °F - 53.6 °F 94% 30.12 in 10.0 mi WSW 4.6 mph - N/A   Clear
9:36 AM 59.0 °F - 53.6 °F 82% 30.12 in 10.0 mi WSW 3.5 mph - N/A   Clear
9:55 AM 60.8 °F - 53.6 °F 77% 30.13 in 10.0 mi WSW 5.8 mph - N/A   Clear
9:56 AM 60.8 °F - 53.6 °F 77% 30.13 in 10.0 mi WSW 4.6 mph - N/A   Clear
10:15 AM 60.8 °F - 55.4 °F 82% 30.13 in 10.0 mi WSW 4.6 mph - N/A   Clear
10:16 AM 60.8 °F - 55.4 °F 82% 30.13 in 10.0 mi WSW 4.6 mph - N/A   Clear
10:35 AM 62.6 °F - 55.4 °F 77% 30.12 in 10.0 mi WSW 4.6 mph - N/A   Clear
10:57 AM 62.6 °F - 55.4 °F 77% 30.11 in 10.0 mi WSW 5.8 mph - N/A   Clear
11:16 AM 64.4 °F - 55.4 °F 73% 30.11 in 10.0 mi WSW 5.8 mph - N/A   Scattered Clouds
11:35 AM 66.2 °F - 55.4 °F 68% 30.09 in 10.0 mi WSW 5.8 mph - N/A   Scattered Clouds
11:55 AM 64.4 °F - 57.2 °F 77% 30.08 in 10.0 mi WSW 6.9 mph - N/A   Scattered Clouds
11:56 AM 66.2 °F - 57.2 °F 73% 30.08 in 10.0 mi WSW 6.9 mph - N/A   Scattered Clouds
12:19 PM 66.2 °F - 57.2 °F 73% 30.07 in 10.0 mi WSW 9.2 mph - N/A   Scattered Clouds
12:55 PM 68.0 °F - 59.0 °F 73% 30.07 in 10.0 mi WSW 6.9 mph - N/A   Scattered Clouds
12:56 PM 68.0 °F - 59.0 °F 73% 30.07 in 10.0 mi WSW 6.9 mph - N/A   Scattered Clouds
1:15 PM 69.8 °F - 59.0 °F 68% 30.06 in 10.0 mi WSW 6.9 mph - N/A   Scattered Clouds
1:16 PM 69.8 °F - 59.0 °F 68% 30.06 in 10.0 mi WSW 8.1 mph - N/A   Scattered Clouds
1:38 PM 68.0 °F - 59.0 °F 73% 30.07 in 10.0 mi WSW 4.6 mph - N/A   Mostly Cloudy
1:57 PM 68.0 °F - 59.0 °F 73% 30.05 in 10.0 mi WSW 5.8 mph - N/A Thunderstorm Mostly Cloudy
2:16 PM 69.8 °F - 59.0 °F 68% 30.04 in 10.0 mi WSW 5.8 mph - N/A   Mostly Cloudy
2:35 PM 71.6 °F - 59.0 °F 64% 30.02 in 10.0 mi WSW 8.1 mph - N/A   Scattered Clouds
2:55 PM 69.8 °F - 59.0 °F 68% 30.02 in 10.0 mi WSW 9.2 mph - N/A   Scattered Clouds
2:59 PM 71.6 °F - 59.0 °F 64% 30.01 in 10.0 mi WSW 10.4 mph - N/A   Clear
3:17 PM 71.6 °F - 59.0 °F 64% 30.00 in 7.0 mi WSW 9.2 mph 17.3 mph N/A   Clear
3:36 PM 71.6 °F - 60.8 °F 69% 30.00 in 10.0 mi WSW 8.1 mph 17.3 mph N/A   Clear
3:55 PM 71.6 °F - 60.8 °F 69% 30.00 in 10.0 mi WSW 9.2 mph - N/A   Scattered Clouds
3:56 PM 71.6 °F - 60.8 °F 69% 30.00 in 10.0 mi WSW 9.2 mph - N/A   Scattered Clouds
4:15 PM 71.6 °F - 60.8 °F 69% 29.99 in 10.0 mi WSW 5.8 mph - N/A   Mostly Cloudy
4:19 PM 71.6 °F - 60.8 °F 69% 29.99 in 10.0 mi WSW 8.1 mph - N/A   Mostly Cloudy
4:37 PM 71.6 °F - 60.8 °F 69% 29.99 in 7.0 mi WSW 9.2 mph - N/A   Scattered Clouds
4:56 PM 69.8 °F - 60.8 °F 73% 29.98 in 10.0 mi WSW 6.9 mph - N/A   Mostly Cloudy
5:15 PM 69.8 °F - 60.8 °F 73% 29.98 in 7.0 mi WSW 4.6 mph - N/A   Overcast
5:40 PM 68.0 °F - 62.6 °F 83% 29.98 in 10.0 mi Calm Calm - N/A   Overcast
5:58 PM 68.0 °F - 62.6 °F 83% 29.98 in 10.0 mi WSW 3.5 mph - N/A   Overcast
6:15 PM 68.0 °F - 62.6 °F 83% 29.98 in 10.0 mi WSW 5.8 mph - N/A   Overcast
6:35 PM 68.0 °F - 62.6 °F 83% 29.99 in 10.0 mi WSW 3.5 mph - N/A Rain Light Rain
6:36 PM 68.0 °F - 62.6 °F 83% 29.99 in 10.0 mi WSW 3.5 mph - N/A   Light Drizzle
6:55 PM 68.0 °F - 62.6 °F 83% 29.98 in 10.0 mi WSW 5.8 mph - N/A   Overcast
6:56 PM 68.0 °F - 62.6 °F 83% 29.98 in 10.0 mi WSW 5.8 mph - N/A   Overcast
7:18 PM 66.2 °F - 62.6 °F 88% 29.98 in 10.0 mi WSW 5.8 mph - N/A   Overcast
7:37 PM 66.2 °F - 62.6 °F 88% 29.99 in 10.0 mi WSW 8.1 mph - N/A   Overcast
7:56 PM 66.2 °F - 62.6 °F 88% 29.98 in 10.0 mi WSW 5.8 mph - N/A   Overcast
8:15 PM 64.4 °F - 60.8 °F 88% 29.98 in 10.0 mi WSW 6.9 mph - N/A   Mostly Cloudy
8:35 PM 64.4 °F - 62.6 °F 94% 29.97 in 10.0 mi WSW 6.9 mph - N/A   Mostly Cloudy
8:39 PM 64.4 °F - 62.6 °F 94% 29.97 in 10.0 mi WSW 6.9 mph - N/A   Mostly Cloudy
8:57 PM 64.4 °F - 62.6 °F 94% 29.97 in 10.0 mi Calm Calm - N/A   Overcast
9:15 PM 64.4 °F - 60.8 °F 88% 29.98 in 10.0 mi Calm Calm - N/A   Mostly Cloudy
9:35 PM 62.6 °F - 60.8 °F 94% 29.99 in 10.0 mi WSW 3.5 mph - N/A   Mostly Cloudy
9:36 PM 62.6 °F - 60.8 °F 94% 29.99 in 10.0 mi WSW 3.5 mph - N/A   Mostly Cloudy
9:55 PM 62.6 °F - 60.8 °F 94% 29.99 in 10.0 mi Calm Calm - N/A   Scattered Clouds
9:56 PM 62.6 °F - 60.8 °F 94% 29.99 in 10.0 mi Calm Calm - N/A   Scattered Clouds
10:18 PM 62.6 °F - 60.8 °F 94% 29.99 in 10.0 mi Calm Calm - N/A   Mostly Cloudy
10:56 PM 60.8 °F - 60.8 °F 100% 29.99 in 10.0 mi WSW 3.5 mph - N/A   Scattered Clouds
11:15 PM 60.8 °F - 59.0 °F 94% 29.99 in 10.0 mi Calm Calm - N/A   Clear
11:16 PM 60.8 °F - 59.0 °F 94% 29.99 in 10.0 mi Calm Calm - N/A   Clear
11:35 PM 60.8 °F - 59.0 °F 94% 29.98 in 10.0 mi Calm Calm - N/A   Clear
11:58 PM 59.0 °F - 59.0 °F 100% 29.98 in 10.0 mi Calm Calm - N/A   Mostly Cloudy